Time,TemperatureF,DewpointF,PressureIn,WindDirection,WindDirectionDegrees,WindSpeedMPH,WindSpeedGustMPH,Humidity,HourlyPrecipIn,Conditions,Clouds,dailyrainin,SoftwareType,DateUTC
2013-11-24 00:01:00,41.6,34.0,30.44,West,273,0.0,11.0,75,0.00,,,0.00,weatherlink.com 1.10,2013-11-24 06:01:00,
2013-11-24 00:16:00,41.4,34.0,30.44,North,3,0.0,5.0,76,0.00,,,0.00,weatherlink.com 1.10,2013-11-24 06:16:00,
2013-11-24 00:31:00,41.4,34.0,30.44,WSW,244,0.0,9.0,76,0.00,,,0.00,weatherlink.com 1.10,2013-11-24 06:31:00,
2013-11-24 00:46:00,41.4,34.0,30.43,North,350,4.0,14.0,75,0.00,,,0.00,weatherlink.com 1.10,2013-11-24 06:46:00,
2013-11-24 01:01:00,41.4,34.0,30.43,WNW,290,0.0,6.0,74,0.00,,,0.00,weatherlink.com 1.10,2013-11-24 07:01:00,
2013-11-24 01:16:00,41.4,33.0,30.42,WSW,247,0.0,9.0,73,0.00,,,0.00,weatherlink.com 1.10,2013-11-24 07:16:00,
2013-11-24 01:31:00,41.4,33.0,30.42,WNW,293,0.0,12.0,72,0.00,,,0.00,weatherlink.com 1.10,2013-11-24 07:31:00,
2013-11-24 01:46:00,41.4,32.0,30.43,NW,307,3.0,15.0,70,0.00,,,0.00,weatherlink.com 1.10,2013-11-24 07:46:00,
2013-11-24 02:01:00,41.1,32.0,30.42,WNW,282,0.0,10.0,71,0.00,,,0.00,weatherlink.com 1.10,2013-11-24 08:01:00,
2013-11-24 02:16:00,41.0,32.0,30.43,SSW,211,7.0,9.0,71,0.00,,,0.00,weatherlink.com 1.10,2013-11-24 08:16:00,
2013-11-24 02:31:00,40.8,32.0,30.43,West,273,0.0,15.0,70,0.00,,,0.00,weatherlink.com 1.10,2013-11-24 08:31:00,
2013-11-24 02:47:00,40.5,31.0,30.42,North,355,4.0,10.0,69,0.00,,,0.00,weatherlink.com 1.10,2013-11-24 08:47:00,
2013-11-24 03:02:00,40.3,30.0,30.43,NNE,19,0.0,10.0,68,0.00,,,0.00,weatherlink.com 1.10,2013-11-24 09:02:00,
2013-11-24 03:17:00,40.1,30.0,30.43,NE,35,0.0,4.0,67,0.00,,,0.00,weatherlink.com 1.10,2013-11-24 09:17:00,
2013-11-24 03:32:00,39.8,30.0,30.42,WNW,296,0.0,9.0,68,0.00,,,0.00,weatherlink.com 1.10,2013-11-24 09:32:00,
2013-11-24 03:47:00,39.6,30.0,30.42,SSW,213,0.0,14.0,68,0.00,,,0.00,weatherlink.com 1.10,2013-11-24 09:47:00,
2013-11-24 04:02:00,39.3,29.0,30.43,WNW,286,4.0,7.0,68,0.00,,,0.00,weatherlink.com 1.10,2013-11-24 10:02:00,
2013-11-24 04:17:00,38.9,29.0,30.43,ENE,78,0.0,8.0,69,0.00,,,0.00,weatherlink.com 1.10,2013-11-24 10:17:00,
2013-11-24 04:32:00,38.7,29.0,30.44,NW,321,3.0,4.0,69,0.00,,,0.00,weatherlink.com 1.10,2013-11-24 10:32:00,
2013-11-24 04:47:00,38.4,30.0,30.44,West,271,0.0,7.0,71,0.00,,,0.00,weatherlink.com 1.10,2013-11-24 10:47:00,
2013-11-24 05:02:00,38.2,30.0,30.45,West,267,7.0,13.0,71,0.00,,,0.00,weatherlink.com 1.10,2013-11-24 11:02:00,
2013-11-24 05:17:00,37.9,30.0,30.45,WNW,282,1.0,8.0,72,0.00,,,0.00,weatherlink.com 1.10,2013-11-24 11:17:00,
2013-11-24 05:32:00,37.7,29.0,30.45,NW,315,0.0,11.0,72,0.00,,,0.00,weatherlink.com 1.10,2013-11-24 11:32:00,
2013-11-24 05:47:00,37.4,29.0,30.45,North,7,0.0,8.0,72,0.00,,,0.00,weatherlink.com 1.10,2013-11-24 11:47:00,
2013-11-24 06:02:00,37.1,29.0,30.46,NW,313,0.0,10.0,72,0.00,,,0.00,weatherlink.com 1.10,2013-11-24 12:02:00,
2013-11-24 06:17:00,36.9,29.0,30.46,WNW,288,0.0,9.0,72,0.00,,,0.00,weatherlink.com 1.10,2013-11-24 12:17:00,
2013-11-24 06:32:00,36.8,29.0,30.46,WNW,283,0.0,8.0,72,0.00,,,0.00,weatherlink.com 1.10,2013-11-24 12:32:00,
2013-11-24 06:47:00,36.8,29.0,30.46,WNW,300,3.0,8.0,73,0.00,,,0.00,weatherlink.com 1.10,2013-11-24 12:47:00,
2013-11-24 07:02:00,36.5,28.0,30.47,NNW,328,3.0,13.0,71,0.00,,,0.00,weatherlink.com 1.10,2013-11-24 13:02:00,
2013-11-24 07:17:00,36.4,28.0,30.48,West,280,9.0,9.0,71,0.00,,,0.00,weatherlink.com 1.10,2013-11-24 13:17:00,
2013-11-24 07:32:00,36.2,28.0,30.48,NW,321,0.0,6.0,72,0.00,,,0.00,weatherlink.com 1.10,2013-11-24 13:32:00,
2013-11-24 07:47:00,36.3,27.0,30.48,NW,311,4.0,11.0,69,0.00,,,0.00,weatherlink.com 1.10,2013-11-24 13:47:00,
2013-11-24 08:02:00,36.2,27.0,30.49,NNW,338,0.0,8.0,68,0.00,,,0.00,weatherlink.com 1.10,2013-11-24 14:02:00,
2013-11-24 08:17:00,36.1,26.0,30.49,NW,309,4.0,11.0,68,0.00,,,0.00,weatherlink.com 1.10,2013-11-24 14:17:00,
2013-11-24 08:32:00,36.3,26.0,30.49,SW,230,6.0,15.0,66,0.00,,,0.00,weatherlink.com 1.10,2013-11-24 14:32:00,
2013-11-24 08:47:00,36.7,27.0,30.49,SSW,204,4.0,10.0,68,0.00,,,0.00,weatherlink.com 1.10,2013-11-24 14:47:00,
2013-11-24 09:02:00,37.3,26.0,30.50,South,185,1.0,14.0,63,0.00,,,0.00,weatherlink.com 1.10,2013-11-24 15:02:00,
2013-11-24 09:17:00,37.9,26.0,30.50,NW,307,10.0,11.0,62,0.00,,,0.00,weatherlink.com 1.10,2013-11-24 15:17:00,
2013-11-24 09:32:00,39.1,26.0,30.50,West,281,1.0,9.0,60,0.00,,,0.00,weatherlink.com 1.10,2013-11-24 15:32:00,
2013-11-24 09:47:00,39.5,25.0,30.50,West,261,0.0,18.0,56,0.00,,,0.00,weatherlink.com 1.10,2013-11-24 15:47:00,
2013-11-24 10:02:00,40.0,24.0,30.49,West,275,0.0,10.0,54,0.00,,,0.00,weatherlink.com 1.10,2013-11-24 16:02:00,
2013-11-24 10:17:00,41.1,25.0,30.48,WSW,258,4.0,13.0,54,0.00,,,0.00,weatherlink.com 1.10,2013-11-24 16:17:00,
2013-11-24 10:33:00,41.9,25.0,30.47,NW,317,3.0,11.0,52,0.00,,,0.00,weatherlink.com 1.10,2013-11-24 16:33:00,
2013-11-24 10:48:00,42.7,26.0,30.47,West,276,3.0,10.0,51,0.00,,,0.00,weatherlink.com 1.10,2013-11-24 16:48:00,
2013-11-24 11:03:00,43.1,26.0,30.45,NW,307,0.0,14.0,52,0.00,,,0.00,weatherlink.com 1.10,2013-11-24 17:03:00,
2013-11-24 11:18:00,42.9,26.0,30.45,WNW,296,1.0,10.0,52,0.00,,,0.00,weatherlink.com 1.10,2013-11-24 17:18:00,
2013-11-24 11:33:00,43.0,25.0,30.44,SW,228,0.0,17.0,50,0.00,,,0.00,weatherlink.com 1.10,2013-11-24 17:33:00,
2013-11-24 11:48:00,43.8,26.0,30.43,WNW,298,3.0,14.0,50,0.00,,,0.00,weatherlink.com 1.10,2013-11-24 17:48:00,
2013-11-24 12:03:00,44.2,26.0,30.41,West,259,4.0,9.0,49,0.00,,,0.00,weatherlink.com 1.10,2013-11-24 18:03:00,
2013-11-24 12:18:00,45.0,27.0,30.41,West,263,3.0,12.0,49,0.00,,,0.00,weatherlink.com 1.10,2013-11-24 18:18:00,
2013-11-24 12:33:00,45.3,28.0,30.40,NNW,331,6.0,14.0,51,0.00,,,0.00,weatherlink.com 1.10,2013-11-24 18:33:00,
2013-11-24 12:48:00,45.6,28.0,30.39,WSW,247,0.0,10.0,50,0.00,,,0.00,weatherlink.com 1.10,2013-11-24 18:48:00,
2013-11-24 13:03:00,45.9,27.0,30.38,SSE,157,0.0,11.0,48,0.00,,,0.00,weatherlink.com 1.10,2013-11-24 19:03:00,
2013-11-24 13:18:00,45.9,28.0,30.37,West,271,3.0,8.0,49,0.00,,,0.00,weatherlink.com 1.10,2013-11-24 19:18:00,
2013-11-24 13:33:00,45.9,29.0,30.37,WNW,294,4.0,8.0,52,0.00,,,0.00,weatherlink.com 1.10,2013-11-24 19:33:00,
2013-11-24 13:48:00,46.0,28.0,30.37,NW,325,3.0,12.0,49,0.00,,,0.00,weatherlink.com 1.10,2013-11-24 19:48:00,
2013-11-24 14:03:00,45.5,27.0,30.37,WNW,282,7.0,11.0,49,0.00,,,0.00,weatherlink.com 1.10,2013-11-24 20:03:00,
2013-11-24 14:18:00,45.4,29.0,30.37,NNE,26,0.0,8.0,52,0.00,,,0.00,weatherlink.com 1.10,2013-11-24 20:18:00,
2013-11-24 14:33:00,45.0,29.0,30.38,WNW,290,3.0,6.0,53,0.00,,,0.00,weatherlink.com 1.10,2013-11-24 20:33:00,
2013-11-24 14:48:00,44.8,29.0,30.37,West,266,0.0,5.0,54,0.00,,,0.00,weatherlink.com 1.10,2013-11-24 20:48:00,
2013-11-24 15:03:00,44.3,27.0,30.37,SW,215,0.0,11.0,52,0.00,,,0.00,weatherlink.com 1.10,2013-11-24 21:03:00,
2013-11-24 15:18:00,44.4,29.0,30.38,NW,304,0.0,6.0,54,0.00,,,0.00,weatherlink.com 1.10,2013-11-24 21:18:00,
2013-11-24 15:33:00,44.4,29.0,30.38,WSW,255,1.0,6.0,54,0.00,,,0.00,weatherlink.com 1.10,2013-11-24 21:33:00,
2013-11-24 15:48:00,44.1,28.0,30.39,WNW,288,5.0,7.0,54,0.00,,,0.00,weatherlink.com 1.10,2013-11-24 21:48:00,
2013-11-24 16:03:00,43.7,28.0,30.38,WSW,253,3.0,4.0,55,0.00,,,0.00,weatherlink.com 1.10,2013-11-24 22:03:00,
2013-11-24 16:18:00,43.4,28.0,30.38,NNE,20,0.0,9.0,54,0.00,,,0.00,weatherlink.com 1.10,2013-11-24 22:18:00,
2013-11-24 16:33:00,43.1,27.0,30.38,NNW,336,0.0,5.0,54,0.00,,,0.00,weatherlink.com 1.10,2013-11-24 22:33:00,
2013-11-24 16:48:00,42.8,28.0,30.38,WNW,290,0.0,4.0,56,0.00,,,0.00,weatherlink.com 1.10,2013-11-24 22:48:00,
2013-11-24 17:03:00,42.6,28.0,30.37,West,265,0.0,6.0,56,0.00,,,0.00,weatherlink.com 1.10,2013-11-24 23:03:00,
2013-11-24 17:18:00,42.5,28.0,30.37,WNW,297,0.0,5.0,58,0.00,,,0.00,weatherlink.com 1.10,2013-11-24 23:18:00,
2013-11-24 17:33:00,42.4,28.0,30.37,SE,136,1.0,5.0,58,0.00,,,0.00,weatherlink.com 1.10,2013-11-24 23:33:00,
2013-11-24 17:48:00,42.4,29.0,30.37,NW,313,0.0,3.0,60,0.00,,,0.00,weatherlink.com 1.10,2013-11-24 23:48:00,
2013-11-24 18:03:00,42.3,30.0,30.38,NNE,21,0.0,3.0,61,0.00,,,0.00,weatherlink.com 1.10,2013-11-25 00:03:00,
2013-11-24 18:18:00,41.9,31.0,30.37,NW,326,0.0,2.0,66,0.00,,,0.00,weatherlink.com 1.10,2013-11-25 00:18:00,
2013-11-24 18:33:00,41.4,32.0,30.37,WNW,290,0.0,4.0,69,0.00,,,0.00,weatherlink.com 1.10,2013-11-25 00:33:00,
2013-11-24 18:48:00,41.4,32.0,30.37,WNW,290,3.0,5.0,68,0.00,,,0.00,weatherlink.com 1.10,2013-11-25 00:48:00,
2013-11-24 19:03:00,41.3,33.0,30.37,NE,49,0.0,3.0,71,0.00,,,0.00,weatherlink.com 1.10,2013-11-25 01:03:00,
2013-11-24 19:18:00,40.4,32.0,30.37,WNW,303,0.0,6.0,73,0.01,,,0.01,weatherlink.com 1.10,2013-11-25 01:18:00,
2013-11-24 19:33:00,40.0,33.0,30.38,ENE,68,0.0,4.0,75,0.01,,,0.01,weatherlink.com 1.10,2013-11-25 01:33:00,
2013-11-24 19:48:00,39.9,33.0,30.37,West,272,0.0,4.0,76,0.01,,,0.01,weatherlink.com 1.10,2013-11-25 01:48:00,
2013-11-24 20:03:00,39.8,32.0,30.38,WNW,290,0.0,3.0,75,0.01,,,0.01,weatherlink.com 1.10,2013-11-25 02:03:00,
2013-11-24 20:18:00,39.8,33.0,30.39,ENE,57,1.0,3.0,76,0.00,,,0.01,weatherlink.com 1.10,2013-11-25 02:18:00,
2013-11-24 20:33:00,39.8,33.0,30.39,West,266,0.0,4.0,76,0.00,,,0.01,weatherlink.com 1.10,2013-11-25 02:33:00,
2013-11-24 20:48:00,40.0,33.0,30.38,West,259,0.0,2.0,77,0.00,,,0.01,weatherlink.com 1.10,2013-11-25 02:48:00,
2013-11-24 21:03:00,40.2,33.0,30.38,NNW,327,0.0,0.0,76,0.00,,,0.01,weatherlink.com 1.10,2013-11-25 03:03:00,
2013-11-24 21:18:00,40.1,33.0,30.38,WSW,240,1.0,1.0,76,0.01,,,0.02,weatherlink.com 1.10,2013-11-25 03:18:00,
2013-11-24 21:33:00,39.1,34.0,30.37,SW,217,0.0,3.0,83,0.02,,,0.03,weatherlink.com 1.10,2013-11-25 03:33:00,
2013-11-24 21:48:00,38.6,35.0,30.36,SW,217,0.0,0.0,86,0.02,,,0.03,weatherlink.com 1.10,2013-11-25 03:48:00,
2013-11-24 22:03:00,38.4,35.0,30.36,WSW,252,0.0,0.0,87,0.02,,,0.03,weatherlink.com 1.10,2013-11-25 04:03:00,
2013-11-24 22:18:00,38.5,35.0,30.36,WSW,246,0.0,3.0,88,0.02,,,0.04,weatherlink.com 1.10,2013-11-25 04:18:00,
2013-11-24 22:33:00,38.5,35.0,30.36,WSW,244,0.0,0.0,88,0.01,,,0.04,weatherlink.com 1.10,2013-11-25 04:33:00,
2013-11-24 22:48:00,38.6,36.0,30.35,WSW,246,0.0,2.0,89,0.02,,,0.05,weatherlink.com 1.10,2013-11-25 04:48:00,
2013-11-24 23:03:00,38.5,36.0,30.35,WSW,246,0.0,1.0,89,0.02,,,0.05,weatherlink.com 1.10,2013-11-25 05:03:00,
2013-11-24 23:18:00,38.1,35.0,30.35,SSW,193,0.0,3.0,89,0.03,,,0.07,weatherlink.com 1.10,2013-11-25 05:18:00,
2013-11-24 23:33:00,37.7,35.0,30.34,SSE,164,0.0,3.0,89,0.06,,,0.10,weatherlink.com 1.10,2013-11-25 05:33:00,
2013-11-24 23:48:00,37.3,35.0,30.33,SSW,193,0.0,3.0,90,0.06,,,0.11,weatherlink.com 1.10,2013-11-25 05:48:00,